Location: Archemont
(49.1579°N, 1.7598°E)
Time: 09:59:07
(UTC+00:00)

Altair - Pass Details

Date: 17 April 2024
Orbit: 1501 x 1682 km, 47.2° (Epoch: 17 May)

Event Time Altitude Azimuth Distance (km) Brightness Sun altitude
Rises 16:41:12 0° 167° (SSE) 4,914 10.1 19.8°
Reaches altitude 10° 16:48:04 10° 134° (SE) 3,908 9.3 18.7°
Maximum altitude 16:50:14 11° 122° (ESE) 3,829 9.2 18.3°
Drops below altitude 10° 16:52:22 10° 109° (ESE) 3,889 9.1 18.0°
Sets 16:59:04 0° 77° (ENE) 4,837 9.5 16.9°
